Other Surface Observations
Issued by NWS

Current Version | Previous Version | Text Only | Print | Product List | Glossary On
Versions: 1 2 3 4 5 6 7 8 9 10 11 12 13 14 15 16 17 18 19 20 21 22 23 24 25 26 27 28 29 30 31 32 33 34 35 36 37 38 39 40 41 42 43 44 45 46 47 48 49 50
000
SXUS52 KTAE 310918
OSOTAE
OSOTAE
North Florida/South Alabama/Southwest Georgia Weather Roundup
National Weather Service Tallahassee Florida
500 AM EDT TUE MAR 31 2015

Note: "fair" indicates few or no clouds below 12,000 feet with no
significant weather and/or obstructions to visibility.

!FLZ017-115-028-034-025-311000
...North Florida...

CITY           SKY/WX    TMP DP  RH WIND       PRES   REMARKS
TALLAHASSEE    FOG       62  61  96 W5        30.09F VSB 1/4
APALACHICOLA   CLEAR     68  63  84 W6        30.10F
PERRY          FOG       60  60 100 CALM      30.11S VSB 1/4
CROSS CITY       N/A     60  59  96 SW3       30.11F
JACKSONVILLE   PTCLDY    58  56  93 W5        30.10S
$$

!FLZ112-006-005-002-011-311000
...Florida Panhandle...

CITY           SKY/WX    TMP DP  RH WIND       PRES   REMARKS
MARIANNA       CLEAR     62  62 100 SW3       30.08F
BONIFAY        FOG       57  57 100 CALM      30.09F VSB 1/4
PANAMA CITY NW FOG       57  56  96 CALM      30.08F VSB 1/4
TYNDALL AFB    CLEAR     65  64  97 SW7       30.09F
TYND DRONE APT FAIR      65  66 100 SW5       30.09F
DE FUNIAK SPR  FOG       60  60 100 CALM      30.09F VSB 1/4
EGLIN AFB      CLEAR     67  64  92 W5        30.08S
DESTIN         CLEAR     67  65  93 SW6       30.09F
HURLBURT       CLEAR     67  63  87 SW7       30.07F
CRESTVIEW      FOG       55  54  96 CALM      30.10F VSB 1/4
PENSACOLA      CLEAR     67  63  87 W12       30.09F
$$

!ALZ063-066-311000
...South Alabama...

CITY           SKY/WX    TMP DP  RH WIND       PRES   REMARKS
DOTHAN         CLEAR     59  58  96 SW5       30.11S FOG
OZARK CAIRNS   FOG       58  55  91 SW2       30.07F VSB<1/4
FT RUCKER HELI MOCLDY    57  55  93 CALM      30.06F FOG
RUCKER HELI 3  FAIR      62  60  96 SW3       30.08F
RUCKER HELI 2  FOG       58  58 100 CALM      30.07F VSB 1/4
FLORALA APT    FOG       57  55  94 CALM      30.09F VSB 3/4
ANDALUSIA      CLEAR     63  59  87 CALM      30.08F
TROY           PTCLDY    56  53  90 CALM      30.07F FOG
EUFALA         FAIR      54  52  94 CALM      30.06S FOG
MOBILE         CLEAR     64  63  96 SW8       30.10F
$$

!GAZ120>161-311000
...Southwest and South Central Georgia...

CITY           SKY/WX    TMP DP  RH WIND       PRES   REMARKS
THOMASVILLE    CLOUDY    61 N/A N/A CALM      30.10S FOG
BAINBRIDGE     CLEAR     63  61  94 SW3       30.08F FOG
MOODY AFB      FOG       59  59 100 SW3       30.08  VSB 1/2
VALDOSTA       FOG       57  57 100 CALM      30.09F VSB 1/2
MOULTRIE       FOG       57 N/A N/A CALM      30.09F VSB 1/4
BLAKELY        FOG       61  61 100 CALM      30.08S VSB 3/4
ALBANY         FOG       57  56  96 CALM      30.09F VSB 1/4
TIFTON         FOG       58  58 100 CALM      30.08F VSB 1/2
FITZGERALD     CLOUDY    61  58  91 CALM      30.10S VSB 1/2
CORDELE        FAIR      52  51  95 CALM      30.09F
AMERICUS       FAIR      52  52 100 CALM      30.09F
HOMERVILLE     CLOUDY    59  59 100 CALM      30.09F FOG
$$

!GMZ750-755-770-775-311000
...Coastal and Buoy Obs...

STATION/POSITION TIME  TEMP    WIND        PRES    VSBY  WAVE
                       AIR SEA DIR/SP/G                  HT/PER
                 (UTC) (F)     (DEG/KT/KT) (MB)    (MI)  (FT/S)
KEATON BEACH     0900   66     260/  8/  9 1019.5F
CEDAR KEY        0900   67     270/  9/ 12 1020.2F
C TOWER          0900   67     230/  8/  9 1019.5F
APALACHICOLA BUO 0850   69 68  230/  6/  6 1020.4F         2/ 4
PANAMA CITY BUOY 0850   73 74  260/ 14/ 16 1020.2F         3/ 4
MOBILE BUOY      0850   71 71  240/  8/ 10 1020.1F         3/ 8
ORANGE BCH AL BU 0850   69 68  240/ 12/ 14 1018.5F         3/ 7
$$



USA.gov is the U.S. government's official web portal to all federal, state and local government web resources and services.